[[{"header":{"parameterUnit":"m.s-1","parameterCategory":1,"la1":30.2991,"la2":30.254,"lo1":-89.0895,"lo2":-89.0444,"dy":0.0017,"dx":0.0017,"nx":28,"ny":28,"refTime":"2025-03-19T03:00:00:Z","depth":0,"parameterNumber":2,"parameterNumberName":"U-component_of_WINDS"},"data":[0,0,0,0,0,0,0,0,0,0,0,0,0,0,0,0,0,0,0,0,0,0,0,0,0,0,0,0,0,0,0,0,0,0,0,0,0,0,0,0,0,0,0,0,0,0,0,0,0,0,0,0,0,0,0,0,0,0,0.9795,0.9795,0,0.9785,0.9785,0.9784,0.9712,0.971,0.9709,0.9707,0.97,0.9702,0.9703,0,0,0,0,0,0,0,0,0,0,0,0,0,0.9756,0.9757,0.9795,0.9795,0.9795,0.9785,0.9785,0.9784,0.9713,0.971,0.9708,0.9706,0.97,0.9702,0.9703,0,0,0,0,0,0,0,0,0,0,0,0,0,0.9762,0.9757,0.9795,0.9758,0.9754,0.9785,0.9785,0.9784,0.9713,0.971,0.9708,0.9705,0.9699,0.9701,0.9704,0.9771,0,0,0.971,0.9711,0,0,0,0,0,0,0,0,0.9762,0.9764,0.9763,0.976,0.9756,0.9747,0.9768,0.978,0.9714,0.9729,0.9707,0.9704,0.9718,0.9719,0.9723,0.977,0.977,0.971,0.9712,0.9713,0.9713,0,0,0,0,0,0,0,0.9762,0.9764,0.9791,0.9763,0.9759,0.9742,0.974,0.977,0.9739,0.9727,0.9722,0.9721,0.9716,0.9721,0.9722,0.977,0.971,0.9712,0.9714,0.9715,0.9872,0.9875,0,0,0,0,0,0,0.9766,0.9764,0.9791,0.9791,0.9752,0.9745,0.9743,0.9753,0.9738,0.9733,0.9724,0.9718,0.9718,0.972,0.9722,0.9799,0.9713,0.9715,0.9716,0.9869,0.9873,0.9876,0,0,0,0,0,0,0.9765,0.9769,0.9792,0.9776,0.9777,0.9749,0.976,0.9754,0.9759,0.9735,0.973,0.9734,0.9716,0.9718,0.9759,0.9798,0.9716,0.9718,0.9866,0.987,0.9874,0.9956,0,0,0,0,0,0,0.9765,0.9769,0.9794,0.9777,0.9779,0.9828,0.9763,0.9756,0.9762,0.9755,0.9744,0.974,0.9714,0.9756,0.9761,0.98,0.972,0.9862,0.9868,0.9873,0.9949,0.9962,0.9973,0,0,0,0,0,0.9763,0.9818,0.9795,0.9799,0.9808,0.9831,0.9832,0.9801,0.9766,0.9791,0.9776,0.974,0.9793,0.9761,0.9766,0.9806,0.986,0.9866,0.9873,0.9944,0.996,0.9973,0,0,0,0,0,0,0.9841,0.9815,0.979,0.984,0.9838,0.9818,0.9849,0.9818,0.9827,0.982,0.9782,0.978,0.9826,0.982,0.9784,0.987,0.982,0.9828,0.9873,0.9887,0.9899,0.99,0.9721,0,0,0,0,0,0.9864,0.9883,0.9859,0.9906,0.9906,0.9878,0.9887,0.9863,0.986,0.9859,0.9847,0.9846,0.9863,0.9874,0.9888,0.9948,0.9945,0.9978,0.999,1.0,1.0007,1.0039,1.0053,0.9897,0.9897,0.9897,0,0,0.9912,0.99,0.9914,0.9922,0.9917,0.9939,0.9878,0.9904,0.992,0.9863,0.99,0.9892,0.9888,0.9939,0.996,0.9935,1.005,1.0008,1.0016,1.0018,1.0047,1.0062,1.0075,0.9901,0.9901,0.99,0,0,1.001,1.0002,1.0041,1.0037,1.0031,1.0012,1.0021,1.0006,0.9998,1.0034,0.9992,1.0011,1.004,1.004,1.0043,1.0141,1.0109,1.0147,1.021,1.0241,1.0253,1.0264,1.03,1.0313,1.0154,1.0155,1.0155,0,1.0071,1.0101,1.0065,1.0093,1.0098,1.0046,1.0085,1.0084,1.0083,1.0088,1.0059,1.0094,1.0089,1.0139,1.0162,1.0167,1.0177,1.0149,1.0254,1.0265,1.0274,1.0308,1.0322,1.0159,1.0159,1.0158,1.0158,0,1.0176,1.0198,1.023,1.0229,1.0237,1.0271,1.0241,1.0254,1.0229,1.0213,1.0252,1.0243,1.0254,1.0264,1.024,1.031,1.0295,1.0261,1.021,1.0295,1.0326,1.0338,1.0166,1.0164,1.0163,1.0162,0,0,1.0324,1.0302,1.0315,1.0314,1.0303,1.032,1.0352,1.0361,1.0374,1.0375,1.0401,1.0427,1.0395,1.0399,1.0375,1.0403,1.0482,1.0365,1.0364,1.0388,1.056,1.0586,1.0602,1.046,1.0462,1.0464,1.056,0,1.0419,1.0471,1.0439,1.0497,1.0517,1.0468,1.0495,1.0493,1.0479,1.0495,1.0479,1.0498,1.0454,1.0457,1.0481,1.0467,1.0516,1.0459,1.0486,1.0487,1.0489,1.0618,1.0646,1.0737,1.0572,1.0574,1.0576,0,1.0537,1.0542,1.0602,1.0587,1.0594,1.062,1.0626,1.0642,1.0638,1.0626,1.063,1.0599,1.0631,1.058,1.0623,1.0585,1.0594,1.0588,1.0591,1.0593,1.0537,1.0625,1.0766,1.078,1.0594,1.0593,1.0591,0,1.064,1.0662,1.07,1.0701,1.0685,1.0704,1.0698,1.0691,1.0699,1.0705,1.071,1.0721,1.0727,1.0735,1.0709,1.0674,1.0756,1.0702,1.0748,1.0749,1.0768,1.0768,1.0914,1.0772,1.0772,1.0772,1.0772,0,1.075,1.0789,1.0746,1.077,1.0812,1.0775,1.0818,1.0808,1.0802,1.0824,1.0781,1.0803,1.0765,1.0784,1.0763,1.0802,1.0805,1.0797,1.0791,1.0801,1.0803,1.0808,1.0801,1.0776,1.0775,1.0774,1.0773,0,1.0873,1.0846,1.0885,1.0866,1.0862,1.0894,1.0878,1.09,1.0882,1.0911,1.0915,1.0889,1.0908,1.0881,1.0898,1.0884,1.0938,1.0922,1.0939,1.0935,1.0983,1.0979,1.1138,1.1157,1.1003,1.1004,1.1005,0,1.0946,1.0974,1.0958,1.0969,1.0965,1.0983,1.0991,1.0956,1.0966,1.0963,1.0986,1.1001,1.1011,1.1044,1.1027,1.104,1.1025,1.1079,1.1026,1.1036,1.1027,1.1026,1.1029,1.1091,1.1093,1.1094,1.1096,0,1.1078,1.1063,1.1075,1.1083,1.1093,1.1097,1.1099,1.1111,1.1074,1.1088,1.1106,1.1114,1.113,1.1146,1.1154,1.1149,1.1117,1.1112,1.1123,1.1135,1.1144,1.1141,1.097,1.1109,1.1108,1.1107,1.1106,1.1105,1.1178,1.1201,1.1193,1.1208,1.1206,1.1208,1.1228,1.1213,1.1227,1.1237,1.1216,1.124,1.1235,1.1242,1.1241,1.126,1.1236,1.1252,1.1257,1.1262,1.1269,1.114,1.1261,1.1261,1.126,1.126,1.126,0,1.1309,1.1301,1.1315,1.1318,1.1331,1.1297,1.1298,1.131,1.1332,1.133,1.134,1.1362,1.1377,1.1361,1.1373,1.1392,1.1377,1.1396,1.1395,1.1395,1.1289,1.1279,1.1408,1.1408,1.1408,1.1408,1.1408,1.1408,1.1378,1.1416,1.14,1.1436,1.1428,1.1451,1.1454,1.1456,1.1454,1.148,1.1492,1.1481,1.1474,1.1485,1.1498,1.1493,1.15,1.1525,1.1515,1.1417,1.1402,1.1388,1.1378,1.1526,1.1526,1.1619,1.162,1.162]},{"header":{"parameterUnit":"m.s-1","parameterCategory":1,"la1":30.2991,"la2":30.254,"lo1":-89.0895,"lo2":-89.0444,"dy":0.0017,"dx":0.0017,"nx":28,"ny":28,"refTime":"2025-03-19T03:00:00:Z","depth":0,"parameterNumber":3,"parameterNumberName":"V-component_of_WINDS"},"data":[0,0,0,0,0,0,0,0,0,0,0,0,0,0,0,0,0,0,0,0,0,0,0,0,0,0,0,0,0,0,0,0,0,0,0,0,0,0,0,0,0,0,0,0,0,0,0,0,0,0,0,0,0,0,0,0,0,0,6.5571,6.5573,0,6.574,6.5742,6.5743,6.5751,6.5749,6.5747,6.5745,6.5908,6.5914,6.592,0,0,0,0,0,0,0,0,0,0,0,0,0,6.5244,6.525,6.5571,6.5573,6.5575,6.5739,6.5742,6.5744,6.5751,6.5748,6.5746,6.5744,6.5906,6.5913,6.592,0,0,0,0,0,0,0,0,0,0,0,0,0,6.5396,6.5252,6.557,6.5599,6.5603,6.5739,6.5742,6.5745,6.5751,6.5748,6.5745,6.5743,6.5903,6.5912,6.5922,6.6038,0,0,6.595,6.5954,0,0,0,0,0,0,0,0,6.5388,6.5408,6.5592,6.5597,6.5602,6.5721,6.5686,6.5843,6.5752,6.5695,6.5745,6.5741,6.5847,6.5861,6.5899,6.6046,6.6053,6.5951,6.5956,6.596,6.5963,0,0,0,0,0,0,0,6.5377,6.5401,6.5637,6.5595,6.5601,6.5599,6.5618,6.5716,6.5785,6.5699,6.57,6.5721,6.5849,6.589,6.5903,6.6055,6.595,6.5959,6.5964,6.5968,6.6304,6.6307,0,0,0,0,0,0,6.5363,6.5392,6.5632,6.5642,6.5486,6.5608,6.5628,6.5686,6.5784,6.5797,6.5723,6.5721,6.5876,6.5892,6.5909,6.6051,6.596,6.5969,6.5974,6.63,6.6305,6.6308,0,0,0,0,0,0,6.5356,6.5384,6.5625,6.5518,6.5548,6.5617,6.5681,6.5691,6.5731,6.5802,6.5814,6.5753,6.5874,6.5896,6.6006,6.6057,6.5973,6.5981,6.6296,6.6302,6.6306,6.6337,0,0,0,0,0,0,6.5346,6.5382,6.5429,6.5519,6.5554,6.5723,6.5684,6.5696,6.5749,6.5747,6.5833,6.5844,6.5873,6.5992,6.6015,6.6068,6.5989,6.6292,6.6299,6.6305,6.6332,6.6343,6.6352,0,0,0,0,0,6.5335,6.5429,6.5431,6.546,6.5616,6.5726,6.5746,6.578,6.5753,6.5799,6.5845,6.5842,6.6048,6.6004,6.603,6.6086,6.6289,6.6297,6.6304,6.6328,6.6341,6.6352,0,0,0,0,0,0,6.534,6.5441,6.5445,6.5572,6.5641,6.5727,6.5788,6.5793,6.5868,6.5863,6.5899,6.5918,6.6028,6.6068,6.6017,6.6203,6.6165,6.6178,6.6174,6.6187,6.6196,6.6185,6.5996,0,0,0,0,0,6.5357,6.5442,6.5524,6.5628,6.5663,6.5719,6.5768,6.5789,6.586,6.5888,6.5942,6.6008,6.6087,6.6139,6.6216,6.6337,6.6355,6.6389,6.6399,6.6406,6.6417,6.6483,6.6499,6.6333,6.6333,6.6333,0,0,6.5391,6.5456,6.5507,6.5631,6.5686,6.577,6.5743,6.5833,6.5895,6.5901,6.601,6.6051,6.6127,6.6243,6.6297,6.628,6.6467,6.6416,6.6422,6.6429,6.6493,6.6508,6.6522,6.6338,6.6337,6.6336,0,0,6.5496,6.5555,6.5648,6.5705,6.5791,6.5828,6.585,6.5936,6.5964,6.6074,6.608,6.6152,6.6289,6.6343,6.6388,6.6512,6.6512,6.6536,6.6588,6.6652,6.6665,6.6676,6.672,6.6736,6.6546,6.6546,6.6546,0,6.5527,6.5657,6.5694,6.5786,6.5838,6.5851,6.5943,6.5995,6.61,6.6135,6.6114,6.6286,6.6338,6.6467,6.6497,6.6533,6.6558,6.6527,6.666,6.6673,6.6684,6.6726,6.6742,6.6549,6.6548,6.6548,6.6548,0,6.569,6.578,6.5844,6.5949,6.6009,6.61,6.6148,6.6204,6.6218,6.6256,6.6366,6.6429,6.6519,6.6551,6.6565,6.6681,6.6668,6.6653,6.6616,6.6702,6.6742,6.6758,6.6552,6.6551,6.6551,6.655,0,0,6.5805,6.593,6.5953,6.6,6.6095,6.6163,6.6253,6.6344,6.639,6.6461,6.6536,6.6651,6.6639,6.669,6.6709,6.6765,6.6859,6.6744,6.6746,6.6763,6.699,6.7,6.7018,6.6859,6.6862,6.6865,6.6983,0,6.5921,6.6086,6.6122,6.6263,6.6345,6.6356,6.6434,6.6499,6.6536,6.6608,6.6647,6.6729,6.6706,6.6737,6.6793,6.6836,6.6905,6.6828,6.6926,6.6929,6.6908,6.704,6.7051,6.716,6.6999,6.7002,6.7004,0,6.6079,6.6157,6.6308,6.6391,6.6427,6.6497,6.6583,6.6652,6.6724,6.6747,6.6804,6.6818,6.6908,6.6866,6.6989,6.6936,6.6978,6.7005,6.7009,6.702,6.6972,6.7053,6.7196,6.7212,6.7029,6.7027,6.7025,0,6.6148,6.629,6.6399,6.6438,6.6539,6.6587,6.663,6.67,6.6752,6.6825,6.6859,6.694,6.6984,6.7045,6.7079,6.7045,6.72,6.716,6.7219,6.7218,6.7252,6.7249,6.7403,6.7278,6.7278,6.7278,6.7277,0,6.6274,6.6365,6.6431,6.6498,6.6599,6.6637,6.6735,6.6777,6.6839,6.6911,6.6924,6.699,6.7031,6.7103,6.7129,6.7227,6.7246,6.7265,6.7271,6.7265,6.7262,6.7293,6.7286,6.7282,6.7281,6.728,6.7279,0,6.6368,6.6416,6.6535,6.6621,6.6644,6.6715,6.6786,6.6849,6.6886,6.6977,6.7,6.7057,6.7142,6.7182,6.7285,6.7303,6.7414,6.7414,6.7391,6.7393,6.745,6.7444,6.7629,6.7654,6.7513,6.7514,6.7515,0,6.6446,6.6517,6.6611,6.6662,6.6708,6.6789,6.6843,6.6882,6.6936,6.7023,6.7075,6.7161,6.7232,6.7366,6.7415,6.7493,6.7496,6.7555,6.7508,6.7499,6.7496,6.7492,6.7499,6.7564,6.7565,6.7566,6.7567,0,6.6579,6.6599,6.6679,6.6766,6.6831,6.6901,6.6969,6.7008,6.7057,6.7117,6.7206,6.7261,6.7368,6.7453,6.7535,6.7575,6.7579,6.7582,6.7599,6.7594,6.7577,6.7587,6.7415,6.7577,6.7576,6.7576,6.7575,6.7575,6.6668,6.6731,6.6808,6.6895,6.6951,6.7014,6.7078,6.7123,6.7199,6.7292,6.7308,6.7402,6.7469,6.7581,6.7624,6.7695,6.7681,6.7707,6.7713,6.7719,6.7722,6.7566,6.771,6.7709,6.7709,6.7709,6.7709,0,6.6802,6.6851,6.6931,6.7028,6.7096,6.7096,6.7171,6.7226,6.731,6.7374,6.7445,6.7545,6.7626,6.7681,6.7763,6.7809,6.7812,6.7829,6.7826,6.7835,6.773,6.7707,6.7825,6.7825,6.7825,6.7825,6.7825,6.7825,6.6879,6.6987,6.7016,6.715,6.7197,6.7293,6.7335,6.7392,6.7444,6.7557,6.7626,6.7662,6.7721,6.7807,6.7881,6.7894,6.7923,6.794,6.7953,6.7855,6.7842,6.7831,6.7809,6.7946,6.7947,6.8052,6.8053,6.8054]}]]